Regional Weather Roundup
Issued by NWS

Home | Current Version | Previous Version | Text Only | Print | Product List | Glossary Off
Versions: 1 2 3 4 5 6 7 8 9 10 11 12 13 14 15 16 17 18 19 20 21 22 23 24 25 26 27 28 29 30 31 32 33 34 35 36 37 38 39 40 41 42 43 44 45 46 47 48 49 50

610
ASUS45 KCYS 170610
RWRWY

WYOMING REGIONAL WEATHER ROUNDUP
NATIONAL WEATHER SERVICE CHEYENNE WY
1100 PM MST SAT DEC 16 2017

NOTE:  "FAIR" INDICATES FEW OR NO CLOUDS BELOW 12,000 FEET
WITH NO SIGNIFICANT WEATHER AND/OR OBSTRUCTIONS TO VISIBILITY.

WYZ001-170700-
YELLOWSTONE NATIONAL PARK

CITY           SKY/WX    TMP DP  RH WIND       PRES   REMARKS
LK YELLOWSTONE   N/A      3   0  87 CALM      29.98R
6HR MIN TEMP:   3; 6HR MAX TEMP:  20; 6HR PCP:  0.01;

W YELLOWSTONE  NOT AVBL

$$
WYZ002>013-054>058-071-098>099-170700-
NORTHERN WYOMING

CITY           SKY/WX    TMP DP  RH WIND       PRES   REMARKS
JACKSON        FAIR      15  12  88 N5        29.99R WCI   8
CODY           MOCLDY    21  18  88 CALM      30.02R
GREYBULL       LGT SNOW  27  26  96 W8        30.02R FOG     WCI  19
6HR MIN TEMP:  27; 6HR MAX TEMP:  30; 6HR PCP: TRACE;

WORLAND        LGT SNOW  26  26 100 W5        30.03R FOG     WCI  20
6HR MIN TEMP:  26; 6HR MAX TEMP:  31; 6HR PCP:  0.10;

SHERIDAN       CLOUDY    27  27 100 CALM      30.04S FOG
6HR MIN TEMP:  27; 6HR MAX TEMP:  29; 6HR PCP:  0.09;

BUFFALO        LGT SNOW  26  21  81 CALM      30.01F
6HR MIN TEMP:  26; 6HR MAX TEMP:  27; 6HR PCP:  0.06;

GILLETTE       LGT SNOW  26  25  96 N7        30.02S FOG     WCI  18
6HR MIN TEMP:  26; 6HR MAX TEMP:  28; 6HR PCP:  0.10;

HULETT         LGT SNOW  28  27  93 CALM      30.04R
NEWCASTLE      LGT SNOW  28  28 100 N5        30.03S WCI  23

$$
WYZ014>020-022>026-101>103-170700-
CENTRAL WYOMING

CITY           SKY/WX    TMP DP  RH WIND       PRES   REMARKS
BIG PINEY      CLOUDY    21  16  81 N8        29.91R WCI  11
6HR MIN TEMP:  21; 6HR MAX TEMP:  28; 6HR PCP: TRACE;

PINEDALE       FLURRIES  23  21  93 NW9       29.92R WCI  13
DUBOIS         LGT SNOW  21  21 100 SE7       29.91S WCI  13
LANDER         LGT SNOW  25  23  92 SW5       29.98R FOG     WCI  19
6HR MIN TEMP:  25; 6HR MAX TEMP:  30; 6HR PCP:  0.18;

RIVERTON       LGT SNOW  24  23  96 N5        29.98R FOG     WCI  18
6HR MIN TEMP:  24; 6HR MAX TEMP:  28; 6HR PCP:  0.17;

CASPER         LGT SNOW  24  22  91 N9        29.97R FOG     WCI  14
6HR MIN TEMP:  24; 6HR MAX TEMP:  28; 6HR PCP:  0.15;

DOUGLAS        CLOUDY    29  26  89 E10       29.99R WCI  20
6HR MIN TEMP:  29; 6HR MAX TEMP:  31;


$$
WYZ021-027>030-104>119-170700-
SOUTHERN WYOMING

CITY           SKY/WX    TMP DP  RH WIND       PRES   REMARKS
EVANSTON       CLOUDY    21  20  96 N5        29.96R WCI  15
6HR MIN TEMP:  21; 6HR MAX TEMP:  26; 6HR PCP:  0.01;

FORT BRIDGER   CLOUDY    24  23  96 W13       29.96S WCI  12
ROCK SPRINGS   FLURRIES  27  23  85 W8        29.92R WCI  19
6HR MIN TEMP:  27; 6HR MAX TEMP:  31; 6HR PCP: TRACE;

DIXON          FAIR      19  13  80 CALM      29.91R
RAWLINS        CLOUDY    26  22  84 NE10      29.88R WCI  16
6HR MIN TEMP:  25; 6HR MAX TEMP:  32;

SARATOGA       FAIR      18  18 100 W6        29.87R WCI   9
LARAMIE        MOCLDY    24  22  91 SE16      29.87R WCI  11
6HR MIN TEMP:  21; 6HR MAX TEMP:  29;

CHEYENNE       FOG       26  26 100 E6        29.93S VSB 1/4 WCI  19
6HR MIN TEMP:  26; 6HR MAX TEMP:  34;

TORRINGTON     CLOUDY    30  25  81 E9        29.99S WCI  22
6HR MIN TEMP:  30; 6HR MAX TEMP:  35;

PINE BLUFFS    CLOUDY    28  28 100 E7        29.97S WCI  21

$$




USA.gov is the U.S. government's official web portal to all federal, state and local government web resources and services.